Theta_e
313 316 317 316 317 317 316 315 314 313 313 315 317 315 315 315 313 315 315 309 308 312 315 315 315 315 315 316 316 315 314 313 313 312 313 313 313 313 313 313 313 313 313 313 311 311 310 309 309 310 311 311 312 311 311 311 311 312 313 313 314 315 315 316 317 317 320 321 321 320 320 321 321 322 324 325 326 327 327 326 327 328 326 325 325 325
313 317 318 317 315 314 314 313 312 312 313 314 315 315 316 316 315 315 314 310 308 312 315 315 315 315 315 315 315 315 315 314 314 314 314 315 315 315 314 314 314 314 314 312 310 310 310 309 309 309 310 311 312 312 311 311 311 311 312 312 313 315 316 316 317 317 319 320 321 320 320 321 321 322 323 323 324 325 325 325 326 327 325 324 324 324
316 317 317 314 311 310 310 310 311 313 313 314 315 315 316 316 315 314 313 311 309 311 315 315 314 315 315 316 315 315 315 315 316 315 316 316 316 316 315 315 315 314 314 312 310 310 309 309 309 309 310 311 312 312 311 311 311 311 312 312 313 315 316 316 317 317 318 319 320 320 320 320 321 321 322 323 323 323 324 324 324 324 323 323 323 323
317 316 314 311 310 311 310 310 311 313 314 315 316 315 316 317 316 313 313 312 310 311 313 314 314 316 316 316 316 316 316 316 316 315 315 316 315 316 316 317 316 315 314 312 311 310 309 309 308 309 310 311 312 312 311 311 311 311 312 312 312 315 316 316 317 317 317 318 319 319 319 320 320 321 321 321 321 321 322 322 323 323 322 322 322 322
317 314 310 309 311 314 312 311 313 314 315 316 317 316 316 317 316 314 314 313 312 312 312 314 315 316 319 319 319 318 316 315 315 314 315 315 315 315 315 316 315 314 313 313 312 310 309 309 309 309 310 311 312 312 311 311 311 311 311 311 312 314 316 316 316 317 317 317 317 317 316 316 316 316 317 317 317 318 320 321 321 322 322 322 322 321
316 311 309 311 312 314 315 313 315 316 315 317 317 316 315 316 316 315 315 314 316 316 314 315 316 316 318 319 319 319 317 316 316 316 315 316 316 315 314 314 314 313 313 312 312 311 310 309 309 309 310 310 312 312 311 311 310 311 311 310 311 313 315 315 316 316 317 317 316 316 314 312 312 312 312 315 317 318 318 320 321 321 321 321 320 320
315 310 312 315 313 315 316 314 316 317 315 316 317 316 315 315 316 316 316 316 317 317 315 315 317 318 317 317 318 319 318 318 319 319 318 318 317 316 316 315 314 313 312 312 311 310 310 309 309 309 309 310 312 311 311 310 310 310 311 310 310 312 314 315 315 316 317 316 316 316 316 315 315 314 313 314 317 319 319 319 320 320 320 320 319 319
314 312 313 316 316 315 315 315 317 316 315 317 318 316 314 314 316 316 316 317 317 318 317 316 319 320 318 318 318 319 318 318 318 319 319 320 320 318 317 316 315 314 313 311 310 309 309 310 309 309 310 310 311 311 310 310 310 310 310 310 310 311 312 314 315 315 315 316 316 316 316 316 317 317 316 315 316 318 319 319 319 319 319 318 317 318
314 317 316 316 316 315 316 318 317 315 315 318 315 313 313 315 316 316 317 317 317 318 319 319 319 318 318 319 317 317 318 319 319 319 319 320 321 320 317 316 315 313 312 310 310 309 309 309 309 309 309 310 311 311 310 309 309 309 309 310 310 310 311 313 314 314 315 315 316 315 315 314 313 313 314 315 316 317 316 317 318 318 318 317 317 317
312 313 314 315 316 316 317 315 313 315 317 315 311 312 314 315 315 316 318 318 318 320 322 321 318 316 316 318 317 317 318 319 319 319 319 321 322 320 318 317 315 312 310 309 308 309 309 308 308 308 308 310 310 310 309 309 309 309 309 310 311 310 311 313 313 314 314 313 314 314 314 312 310 311 313 312 313 313 312 313 315 316 316 316 314 313
310 308 311 315 315 315 314 309 310 316 315 312 314 317 317 316 316 317 317 318 320 321 321 321 319 316 316 318 319 319 318 319 320 319 319 321 320 319 318 316 314 311 309 308 307 307 308 307 307 307 308 309 310 309 309 308 308 309 309 309 310 309 310 312 312 312 312 311 312 313 313 311 311 313 314 312 310 310 309 310 313 314 314 313 310 309
312 312 313 314 312 312 313 311 310 311 311 314 319 320 319 318 317 318 319 319 320 320 319 318 318 319 319 318 318 319 318 317 318 319 320 322 322 323 322 317 313 310 308 307 306 306 306 306 306 306 307 308 309 309 308 308 308 309 308 308 308 307 308 311 311 311 311 310 310 311 311 311 313 315 316 315 313 312 311 311 313 313 312 310 306 305
316 316 315 313 311 312 316 316 313 311 311 315 319 319 319 317 317 319 320 320 320 319 316 313 315 319 320 318 318 318 317 316 317 317 319 321 323 324 323 318 314 311 308 307 307 307 306 306 306 306 307 308 309 309 308 308 308 308 308 308 307 306 307 309 310 310 310 310 309 310 309 311 313 315 315 317 317 316 315 314 315 313 312 308 304 303
316 316 315 315 313 313 317 317 316 315 314 316 319 319 318 317 319 320 319 317 317 318 313 311 315 319 318 317 318 317 317 317 317 316 317 318 319 320 319 317 314 312 310 308 308 307 306 307 307 306 307 308 309 309 308 308 308 308 308 308 307 306 305 307 308 308 309 309 308 309 309 310 313 313 313 315 316 317 316 316 316 315 314 311 308 308
315 315 315 316 316 315 316 317 319 319 316 316 319 319 318 318 318 318 317 316 316 317 314 311 315 319 318 317 318 317 317 317 317 317 317 316 316 316 315 313 312 311 309 310 309 307 307 307 307 307 307 308 309 309 308 308 308 308 308 307 307 306 304 305 306 305 307 307 307 308 309 310 312 313 313 312 313 315 316 315 315 315 314 312 312 312
316 315 316 317 317 316 316 318 320 318 316 316 317 318 319 318 315 313 315 316 315 317 317 314 316 318 317 317 317 315 315 316 316 316 316 315 315 315 314 314 313 311 309 310 309 307 306 307 306 306 307 308 309 309 308 308 307 307 308 307 307 306 304 304 304 304 304 305 306 307 308 308 311 311 311 310 310 312 315 314 314 315 313 312 312 312
314 315 316 315 315 314 315 318 318 317 316 316 316 318 317 316 315 315 315 314 314 317 318 317 318 317 316 317 317 316 316 315 315 314 314 314 315 315 315 316 316 315 312 310 308 306 306 306 306 306 307 308 309 309 308 308 307 307 307 307 307 307 304 303 303 302 302 304 305 305 306 308 308 308 309 310 310 311 312 313 313 313 312 311 312 311
314 315 315 314 315 313 310 314 316 316 316 315 317 318 316 315 316 316 317 318 318 320 320 318 318 317 317 318 317 317 317 316 315 315 315 315 316 315 315 316 316 317 314 309 306 306 305 306 305 305 306 307 308 309 308 308 307 307 307 306 306 306 304 303 302 301 301 303 304 303 305 306 307 307 308 310 311 311 311 312 311 312 311 311 311 310
314 315 316 312 314 313 310 314 317 314 313 314 316 317 316 318 319 317 318 320 320 321 320 318 317 316 318 318 317 318 320 319 317 317 316 315 315 316 315 315 315 316 314 309 306 305 304 305 305 304 305 306 307 308 308 307 307 306 306 306 306 306 305 303 302 301 301 302 302 302 304 306 306 307 308 309 310 309 310 312 312 311 310 310 309 307
315 313 316 311 310 313 313 315 318 316 314 312 313 315 315 317 319 319 318 318 319 319 319 319 318 317 318 319 317 318 320 319 318 320 320 317 316 317 316 317 318 319 317 310 306 304 303 304 304 304 305 305 307 308 307 307 307 306 306 306 306 305 304 303 302 301 301 301 302 303 304 305 306 306 306 307 308 307 308 311 311 310 309 309 308 305
315 312 315 314 310 314 316 317 318 318 316 315 315 317 316 315 316 317 317 316 317 319 319 320 321 318 318 320 318 317 318 318 318 321 322 321 320 318 317 319 323 324 319 310 305 304 303 304 303 303 304 305 306 307 307 307 306 306 305 305 304 304 303 302 302 301 301 302 302 303 304 304 305 304 304 305 305 305 307 309 309 308 308 307 306 303
315 312 314 316 313 316 318 317 317 318 319 318 317 318 318 317 316 318 319 316 316 319 318 319 321 318 319 320 318 317 318 318 319 320 321 324 322 320 320 321 322 320 316 309 305 303 303 303 303 302 303 304 305 306 306 306 306 305 305 304 303 302 302 301 301 300 301 302 303 303 303 304 304 303 302 303 303 303 304 307 306 306 305 304 303 300
318 315 315 318 317 317 316 311 309 313 317 316 316 317 318 318 318 319 321 319 317 318 316 316 319 319 320 321 318 318 319 317 318 319 320 323 321 319 322 323 319 314 310 306 303 302 302 303 302 302 302 303 303 304 305 306 306 305 305 303 302 301 300 300 300 299 300 301 302 302 302 302 303 302 301 301 301 301 301 304 304 303 303 301 300 296
318 317 316 318 319 318 315 310 308 309 314 315 315 316 316 318 319 319 319 319 319 319 318 319 320 320 322 321 317 317 317 315 316 317 320 322 318 316 318 320 317 313 311 308 303 301 302 302 301 301 302 302 303 304 304 305 305 305 305 303 302 301 300 300 300 299 300 300 301 300 299 299 300 300 299 299 300 300 301 302 302 301 300 298 296 293
317 318 318 318 319 319 318 316 314 313 313 316 317 316 316 318 320 320 318 317 319 321 321 322 322 321 321 319 315 315 315 315 315 314 315 318 318 316 317 318 314 311 314 313 306 302 301 300 300 301 301 302 302 303 303 304 305 305 304 303 303 301 300 299 299 299 299 299 299 298 297 297 297 297 298 299 300 300 301 301 301 300 298 296 294 291
319 319 318 318 319 320 321 321 320 318 315 315 317 317 317 318 319 319 318 318 320 322 322 321 321 320 319 319 316 315 315 316 316 313 311 313 315 314 314 315 313 312 316 315 308 304 302 300 300 301 301 301 302 302 303 303 304 304 304 303 302 301 300 299 299 299 299 298 297 296 296 296 295 296 298 300 300 300 301 301 300 299 297 295 292 290
323 321 317 318 319 319 321 320 320 321 318 317 318 318 317 318 319 319 319 320 321 321 321 321 320 320 319 319 317 316 315 316 316 315 313 313 315 315 314 313 311 310 311 310 307 304 303 301 300 300 300 301 301 301 302 302 302 303 303 303 301 301 300 300 299 298 298 298 297 296 295 295 295 296 297 299 301 301 301 300 299 298 297 294 291 289
324 321 318 320 319 318 320 319 320 321 321 319 320 319 318 318 319 319 320 321 321 321 322 321 321 321 320 318 318 318 317 316 315 314 314 315 316 316 315 314 310 308 308 307 305 304 303 302 300 299 300 300 300 301 301 301 301 301 302 302 301 300 300 299 298 297 297 297 297 296 296 295 296 297 297 299 301 301 300 298 297 297 296 293 290 288
322 320 319 321 320 318 319 319 319 321 320 320 320 320 319 318 318 319 320 320 320 322 322 321 321 322 320 318 319 318 318 317 316 314 314 315 316 315 314 312 310 312 312 310 308 306 304 303 301 299 300 299 299 300 300 300 300 300 301 301 300 300 300 299 297 296 296 297 296 296 296 297 298 298 297 297 298 298 297 296 296 295 294 291 289 288
320 319 319 321 320 319 319 319 319 319 319 319 319 320 320 318 318 319 318 319 320 321 321 320 322 321 320 319 319 318 319 318 317 315 315 316 317 317 315 311 310 313 314 313 313 310 305 303 301 300 300 299 299 299 299 299 299 299 300 300 299 300 299 298 297 296 297 297 296 296 296 296 297 296 295 294 294 294 295 295 294 293 291 289 288 287
318 318 320 320 319 320 319 319 319 320 319 319 318 319 320 319 319 319 319 319 320 320 320 320 322 321 319 319 319 318 319 319 317 315 315 316 317 317 316 313 311 312 312 312 314 311 307 304 301 299 300 299 299 299 299 299 299 299 299 299 299 298 298 297 297 296 296 296 295 295 295 294 294 293 293 293 293 294 294 294 293 291 289 287 287 287
316 317 319 319 319 321 320 320 320 320 319 319 318 319 319 318 319 319 318 319 319 320 321 321 321 321 319 318 319 319 319 318 316 315 315 316 317 316 316 316 315 314 313 313 313 312 309 305 301 300 299 299 299 299 299 299 298 298 298 298 298 297 297 296 296 295 296 295 295 295 294 293 292 293 293 292 293 294 294 293 291 289 287 286 286 286
316 317 318 319 320 321 321 321 321 320 321 321 319 318 318 317 318 318 318 318 318 319 320 320 320 319 318 319 318 319 319 317 316 316 316 316 316 316 316 317 315 314 314 315 315 313 309 305 302 301 300 300 299 299 298 298 298 298 297 297 297 296 296 295 295 295 295 294 294 294 293 293 293 293 293 292 292 293 292 291 289 288 287 286 286 286
316 318 317 318 320 321 321 321 321 321 323 323 321 318 318 317 317 318 318 318 318 318 318 318 318 318 318 318 318 318 319 318 317 316 316 316 316 316 316 316 316 314 314 314 313 312 308 304 302 301 300 300 299 299 298 298 298 298 297 297 297 296 295 295 294 294 294 293 293 293 293 292 292 292 291 291 290 290 289 289 288 287 286 286 285 285
316 317 317 318 319 320 320 320 322 324 324 324 324 321 318 317 318 318 318 317 317 317 317 317 317 317 317 317 317 318 317 317 317 316 316 316 316 317 317 317 317 316 314 313 312 311 308 305 302 301 300 300 299 298 298 297 297 297 296 296 296 295 294 294 294 294 294 293 292 292 292 292 292 291 289 288 288 287 287 288 288 287 286 285 285 285
316 316 316 318 318 319 320 321 323 325 323 323 325 322 318 318 318 319 320 319 317 317 317 317 316 316 316 317 317 317 317 318 317 315 314 314 315 317 317 317 317 316 315 314 313 312 309 305 303 303 302 301 299 298 297 297 297 296 296 295 295 294 294 293 294 294 294 293 292 291 291 291 290 289 288 287 286 286 286 286 287 287 285 285 285 285
315 316 316 317 318 319 320 321 322 322 322 323 322 320 318 318 317 319 320 320 318 317 317 317 316 316 316 317 316 317 317 317 316 315 315 314 315 315 315 315 316 316 316 314 313 311 309 306 304 304 303 301 298 297 296 296 296 296 295 294 294 293 293 293 293 293 293 293 292 291 291 290 290 288 288 287 286 286 286 287 287 286 285 285 284 284
314 315 316 318 318 318 319 321 321 322 322 321 320 319 319 318 317 318 320 320 318 318 317 317 317 317 317 317 317 317 316 315 316 316 316 316 316 315 314 313 314 315 314 312 311 309 308 306 304 303 301 298 296 296 296 295 295 295 294 294 293 293 292 292 292 292 292 292 292 291 291 290 289 288 288 288 288 288 288 288 288 287 286 286 285 285
315 314 315 317 318 318 319 321 322 322 322 322 321 320 319 320 319 320 321 320 318 317 317 317 317 317 317 317 317 317 316 316 317 316 316 317 317 315 314 313 312 312 310 309 308 308 306 303 301 300 298 296 295 295 295 295 295 294 293 293 293 292 292 292 292 292 292 292 292 291 291 290 289 289 289 289 290 290 289 289 289 287 286 286 286 285
315 314 315 316 317 318 319 320 320 320 320 324 325 321 317 317 317 320 322 322 319 317 318 317 316 317 316 316 316 316 316 317 317 317 317 318 316 315 313 313 312 311 309 306 305 305 303 300 298 296 295 295 295 294 294 294 294 293 293 292 292 292 292 292 292 292 292 292 291 291 291 290 290 290 290 290 290 290 290 290 288 287 286 285 285 285
315 315 315 316 318 318 318 320 320 318 320 325 324 318 314 315 318 321 323 321 319 319 319 317 317 316 316 316 316 315 315 315 315 317 318 316 314 313 311 310 309 307 306 304 301 300 299 297 296 296 295 294 294 293 293 293 293 293 293 292 292 292 292 292 292 292 292 292 291 291 291 291 291 291 291 291 291 290 289 289 288 287 287 286 285 284
314 316 315 316 318 317 317 320 319 318 321 323 319 314 313 317 320 320 319 319 320 321 319 317 317 316 316 316 316 316 316 315 314 315 315 312 311 312 309 306 305 303 302 300 298 297 296 295 295 295 294 293 293 293 293 293 293 292 292 292 291 291 292 292 292 292 292 292 291 291 291 290 291 291 291 291 291 290 289 288 288 288 287 286 285 285
316 317 316 316 317 317 318 319 319 320 322 320 315 313 314 317 319 318 317 317 317 317 317 316 314 314 316 316 316 315 315 314 313 312 312 310 310 309 307 304 304 303 300 298 297 296 295 295 294 294 293 292 292 292 292 292 292 292 292 291 291 292 292 292 292 292 291 291 291 290 290 290 290 290 290 290 290 290 289 288 287 287 287 286 286 285
315 315 316 316 316 317 317 318 318 319 319 317 315 315 315 314 314 315 315 314 311 310 311 311 311 312 313 313 313 312 312 312 311 310 310 309 307 306 303 301 301 301 299 297 296 295 294 294 294 292 291 291 291 291 291 292 292 291 291 291 291 291 291 291 291 291 290 290 290 290 290 290 290 290 290 290 289 289 289 288 287 287 286 286 286 285
315 315 316 315 315 317 316 316 317 316 313 312 313 314 316 315 313 310 309 310 309 308 307 307 309 309 308 308 308 308 308 309 308 307 307 306 304 302 300 299 298 298 297 296 294 294 294 294 293 291 289 289 290 290 291 291 292 291 291 291 291 291 291 290 290 290 290 289 289 289 289 289 289 289 289 289 289 289 288 287 287 286 286 286 285 285
315 317 317 315 316 316 316 315 315 312 311 312 312 312 313 313 310 307 306 308 310 308 305 304 305 306 304 303 304 306 307 306 305 305 303 302 301 299 296 296 295 295 294 294 293 293 293 292 290 289 289 289 289 290 290 291 292 291 291 291 291 290 290 290 289 289 289 289 289 289 289 289 288 288 289 289 289 289 289 288 288 287 286 285 284 284
313 314 313 314 315 316 315 315 314 313 312 313 313 311 310 309 305 303 304 306 307 307 304 302 304 304 302 301 303 306 306 304 304 304 302 299 298 296 294 294 294 293 293 292 291 291 291 290 289 289 288 288 288 289 290 290 291 291 291 290 290 290 290 290 289 289 288 289 289 288 289 288 288 288 288 288 288 288 288 288 288 287 286 285 284 284
311 311 311 312 313 314 315 315 316 314 311 311 311 310 309 308 306 304 303 303 303 303 302 302 303 303 303 302 302 304 305 303 303 303 300 297 295 294 293 292 292 292 291 290 290 289 290 289 289 289 288 288 288 289 290 290 290 291 291 291 290 290 290 289 289 289 288 288 288 288 288 288 288 288 287 287 287 288 287 287 287 287 287 286 286 285
308 309 310 312 312 313 314 314 314 312 309 308 309 308 306 307 308 308 307 304 303 303 304 304 303 302 303 303 302 302 304 304 301 300 298 296 295 293 292 292 291 290 289 289 288 289 290 290 289 289 288 287 288 288 289 289 290 290 290 291 290 290 290 289 289 288 288 288 288 288 288 288 288 288 288 287 287 287 287 287 287 287 287 288 288 288
306 308 309 310 311 312 312 311 312 312 311 310 310 310 309 307 307 308 308 305 305 305 306 306 305 301 300 300 299 299 303 304 300 297 298 297 295 293 292 291 290 289 288 288 288 289 290 289 289 289 287 286 287 288 288 289 289 289 290 291 291 290 290 289 288 288 288 288 288 288 288 288 288 288 288 287 286 286 286 286 287 287 287 287 287 287
306 308 309 309 309 310 309 308 308 309 311 311 311 312 312 309 306 308 308 306 305 305 304 305 306 305 304 303 299 298 302 304 301 298 299 297 294 292 291 290 289 288 287 287 289 289 288 288 288 287 286 286 287 288 289 289 289 289 290 290 290 290 290 289 288 287 287 287 288 288 288 287 287 287 287 287 286 285 285 284 285 285 286 286 286 286
Wind_Speed
2 2 4 6 4 5 8 5 2 5 5 3 3 1 2 3 7 5 1 3 1 4 9 11 12 15 17 15 15 13 8 9 13 13 13 12 10 9 11 12 12 13 9 5 8 12 16 22 25 27 26 24 20 19 18 18 18 18 18 17 18 19 19 20 22 23 25 26 24 23 24 25 24 22 21 20 21 21 22 23 22 22 21 21 22 24
2 5 7 5 2 4 4 4 5 4 4 2 2 2 2 4 8 6 0 1 2 3 8 8 11 14 15 15 14 13 13 14 16 16 16 15 12 10 12 15 14 10 6 5 7 11 14 18 23 24 24 23 21 20 19 19 19 19 19 18 19 22 21 22 24 24 26 27 26 26 27 26 23 22 22 22 23 24 24 24 23 23 23 21 23 26
3 7 6 3 8 7 5 5 5 3 3 2 2 2 3 3 5 7 1 1 2 4 6 6 9 13 14 16 16 16 16 17 16 16 16 14 13 12 13 14 12 9 7 8 9 11 13 16 19 20 21 22 22 21 20 20 20 20 19 18 20 24 24 24 25 25 27 28 28 28 27 25 23 23 24 24 25 24 24 23 23 24 23 21 23 26
4 4 2 5 8 7 6 5 6 4 3 4 3 3 4 1 2 5 1 2 3 3 4 7 9 11 13 15 17 18 17 16 16 15 14 13 14 17 16 11 9 10 10 9 9 11 13 15 17 19 20 22 22 20 20 21 21 22 22 19 21 26 26 26 27 28 28 28 28 27 26 25 25 25 25 25 25 25 24 23 24 25 24 23 23 25
3 1 2 5 7 7 6 6 7 5 4 5 6 6 5 4 5 6 3 4 4 2 2 7 9 8 8 10 11 9 8 12 13 11 13 14 15 17 15 12 10 11 10 9 10 10 13 15 18 20 20 20 21 20 21 22 22 23 23 20 21 26 28 28 29 29 28 28 27 26 25 25 24 23 24 25 25 26 25 25 26 26 25 24 24 24
3 3 4 6 4 4 6 5 6 6 4 4 6 9 10 9 7 5 2 5 5 2 1 4 7 4 3 5 7 3 4 9 7 6 11 13 12 12 12 12 11 10 10 10 10 9 12 15 16 17 19 20 21 21 20 21 21 22 23 21 22 26 28 29 31 31 30 28 28 28 28 27 24 23 24 26 27 27 26 26 26 26 25 24 24 23
1 2 2 5 6 5 5 4 5 7 4 2 2 6 10 8 5 5 2 2 4 3 0 1 6 6 4 8 10 6 9 14 8 7 12 12 9 8 8 9 8 8 8 9 9 9 11 14 15 17 20 22 22 21 19 19 19 22 23 22 23 27 29 30 32 32 31 30 30 31 30 28 27 27 27 28 29 29 28 28 27 26 26 25 24 23
3 4 3 5 5 5 5 4 5 8 5 1 1 2 4 5 5 5 3 4 4 4 2 3 2 8 8 6 7 8 11 15 13 12 13 13 10 7 7 9 8 7 7 6 8 9 10 14 16 18 20 22 21 20 19 19 20 23 24 23 24 27 30 30 32 33 32 32 31 29 28 28 29 30 30 29 28 29 29 30 29 28 28 26 25 24
2 6 7 8 5 4 5 1 5 11 5 1 2 2 3 3 3 3 2 3 2 4 5 4 5 7 7 2 2 4 8 11 13 13 15 14 8 4 6 8 6 5 5 6 7 8 10 13 16 17 19 20 20 20 20 21 22 23 25 27 28 29 30 30 33 34 33 32 31 30 30 29 27 28 30 30 29 30 30 30 29 29 29 28 27 26
1 2 4 6 6 5 3 3 2 8 4 3 5 5 5 4 4 3 1 1 0 5 6 7 9 7 7 3 4 2 5 9 11 11 13 11 4 3 6 6 4 3 4 5 6 6 9 11 14 15 16 18 20 20 20 20 22 22 24 29 32 30 30 31 32 33 32 32 32 31 32 30 27 27 29 29 29 30 30 30 30 30 30 29 28 28
1 1 1 2 2 2 5 5 2 0 3 6 7 5 5 3 2 1 0 1 2 7 5 8 14 11 7 2 6 4 4 7 9 9 9 8 5 5 5 4 3 3 3 3 4 5 7 8 11 13 15 18 19 20 20 21 22 23 24 29 31 29 31 32 32 34 33 33 33 32 32 31 29 29 30 30 30 31 31 31 31 30 30 30 29 28
1 1 1 0 1 3 6 5 4 3 3 4 3 3 3 1 1 2 1 1 4 7 2 2 6 10 9 4 4 3 4 7 8 8 8 7 6 4 2 2 2 1 2 3 4 4 6 7 10 13 15 18 19 20 22 23 23 24 25 28 28 26 31 33 32 34 34 34 34 33 31 30 30 31 32 32 32 33 33 32 32 31 31 31 30 29
1 3 2 1 0 3 5 5 4 2 1 2 3 5 4 2 2 3 3 2 5 5 0 1 1 6 10 9 7 7 9 11 9 8 8 7 8 5 2 2 1 0 2 3 3 4 6 7 10 14 16 18 20 22 23 23 23 24 25 28 27 25 29 33 33 34 35 35 35 33 30 29 30 31 32 33 33 34 35 34 35 34 33 32 31 31
3 1 3 4 2 4 8 7 4 3 5 6 6 7 6 4 3 4 2 1 5 3 1 1 2 5 7 8 13 17 17 14 10 9 9 8 11 9 3 3 3 2 3 3 4 5 6 7 10 13 15 17 20 21 23 24 24 24 25 27 27 25 28 33 34 35 36 36 35 33 30 30 31 31 31 32 34 36 37 38 38 36 35 34 33 32
6 3 6 9 4 6 11 7 3 5 6 7 4 3 5 5 3 4 3 3 5 3 1 2 2 5 3 1 5 11 10 8 6 7 7 8 11 9 5 6 7 6 6 4 5 5 6 8 10 12 14 16 19 21 23 24 24 24 25 27 28 26 28 33 34 35 36 36 35 33 32 32 32 31 31 32 34 37 38 39 39 37 35 34 33 33
5 5 3 4 1 8 10 3 3 5 4 4 1 1 4 3 3 2 2 1 2 4 2 4 3 5 4 3 4 5 5 5 5 6 7 10 12 8 7 9 8 7 7 6 6 6 7 9 11 13 15 16 18 21 23 24 25 26 26 27 27 25 27 32 34 34 36 35 34 34 33 33 33 32 31 31 33 37 39 39 38 36 34 33 33 33
3 2 2 2 1 3 3 0 2 1 2 4 3 4 2 1 1 3 1 2 1 5 5 3 6 7 5 7 8 9 9 8 7 7 8 12 11 7 7 10 8 5 5 6 6 7 8 10 12 14 15 17 19 21 23 25 25 26 26 26 28 27 26 30 33 33 35 35 34 35 35 35 34 33 31 32 33 36 39 39 38 37 35 34 34 34
3 1 1 1 1 1 2 1 3 3 1 4 4 5 3 2 1 2 3 1 2 6 4 3 7 8 5 6 3 6 8 11 11 11 11 12 10 7 8 10 9 4 3 5 7 7 7 9 11 13 14 16 18 20 22 24 24 25 26 26 28 28 27 30 32 32 34 35 34 34 35 35 34 33 32 33 34 36 39 39 38 37 36 34 33 34
3 3 0 1 1 2 1 2 3 2 1 1 1 2 2 2 3 3 4 4 3 5 4 3 5 8 9 7 2 6 8 10 10 10 12 13 11 9 10 10 9 5 2 4 6 6 6 8 11 13 14 15 17 18 19 22 23 25 26 27 28 28 28 30 32 32 34 35 33 33 34 34 34 33 33 34 34 36 39 40 37 36 34 33 33 35
3 5 2 1 2 2 2 5 6 5 1 2 1 2 1 2 2 3 3 2 4 4 4 3 4 8 9 6 5 9 10 10 10 9 9 10 10 9 8 7 7 5 4 5 5 4 5 7 9 12 14 15 17 18 18 20 23 25 25 26 28 27 27 30 32 33 34 35 34 34 34 35 34 34 34 35 34 36 39 39 36 33 33 33 34 35
3 4 3 2 1 2 5 6 9 10 8 6 6 7 5 2 0 2 1 0 2 3 3 4 7 10 4 4 6 10 10 12 12 9 6 6 7 6 5 4 4 4 3 3 3 3 4 6 9 11 12 14 15 17 19 21 23 25 25 25 27 26 26 31 33 34 35 36 36 36 36 36 35 35 35 34 34 36 38 36 33 32 32 33 34 36
4 4 4 4 4 6 4 1 3 6 6 6 7 9 10 8 5 4 4 2 1 3 3 2 7 11 2 4 5 7 8 11 11 8 6 6 7 4 3 5 4 3 2 2 3 3 4 6 8 10 12 13 15 17 20 21 22 24 25 24 25 26 26 30 33 34 36 37 37 37 37 37 36 36 36 35 35 36 36 34 32 31 31 32 34 36
4 2 4 4 4 4 0 3 2 3 1 0 2 3 5 6 7 7 6 4 3 2 1 1 6 11 2 4 3 3 5 6 7 6 6 5 5 4 4 5 5 4 3 2 2 3 4 6 8 10 12 14 16 17 20 22 22 24 25 24 25 26 28 30 32 34 36 37 38 38 37 36 37 37 36 36 36 35 33 32 31 30 30 32 35 37
3 1 5 4 1 1 2 1 1 2 1 2 2 2 5 9 10 6 2 3 5 4 4 3 7 11 2 3 1 1 0 2 3 5 6 5 4 4 6 5 3 4 3 3 3 2 4 6 7 10 13 15 17 18 20 22 23 23 25 26 25 26 29 32 34 35 36 37 37 37 36 35 36 36 36 36 36 34 32 31 30 30 30 33 36 38
5 4 4 4 3 2 2 3 3 2 3 4 5 6 9 12 8 2 1 2 4 9 12 8 9 11 1 3 2 2 1 2 4 4 5 5 4 5 6 5 4 4 4 4 4 4 5 6 8 10 12 14 17 18 20 22 23 24 26 27 27 26 29 34 36 36 36 36 36 35 35 35 35 35 36 36 36 34 32 31 30 30 31 34 37 39
7 5 6 7 7 7 7 6 4 4 5 4 5 7 11 13 10 5 3 5 7 12 14 9 11 14 4 3 5 4 1 3 6 5 4 5 7 6 5 4 4 5 5 4 5 5 6 7 8 10 12 13 15 17 20 22 23 25 26 28 28 26 27 34 37 36 36 36 36 36 35 36 36 37 37 37 37 35 33 32 31 31 32 35 38 40
3 3 8 11 11 11 11 7 2 6 7 7 9 11 12 14 15 9 5 7 11 12 11 11 15 20 17 10 8 5 3 5 7 6 5 7 10 8 6 5 5 5 4 4 4 5 6 8 9 11 13 14 16 17 19 21 23 25 26 27 28 26 28 34 37 37 37 37 37 37 37 37 38 38 38 39 38 36 35 34 33 33 34 37 39 41
3 3 8 11 13 14 15 14 7 9 9 12 13 14 15 15 16 14 11 15 15 11 12 15 17 19 23 22 14 8 6 7 8 8 8 8 9 6 4 5 6 6 4 3 5 7 8 10 10 11 13 16 17 18 20 21 23 25 25 26 27 27 30 35 37 38 38 38 38 39 39 39 39 39 39 40 39 38 37 35 34 34 35 37 40 42
3 4 7 10 14 17 17 18 14 11 11 14 14 16 17 18 18 18 19 22 19 14 13 15 18 20 21 24 21 14 11 10 10 9 8 6 5 5 4 6 8 8 6 6 9 10 10 11 10 11 14 16 18 20 21 22 23 24 25 25 27 29 31 34 37 39 40 40 39 40 40 39 39 39 39 40 39 38 38 36 35 34 35 38 40 42
3 5 10 12 13 17 19 20 19 16 15 17 16 14 14 18 22 23 23 24 23 19 16 18 23 24 21 22 19 13 12 11 7 8 7 6 6 8 8 8 9 9 8 9 11 11 12 11 10 10 12 15 18 21 22 22 24 26 26 25 27 33 34 34 38 41 41 41 40 40 39 39 39 39 39 39 39 38 37 36 35 35 36 39 41 42
4 7 10 10 9 13 17 20 21 18 15 16 15 9 10 16 22 23 20 17 18 20 21 22 24 22 19 18 15 13 10 6 5 9 10 8 9 10 10 10 11 10 10 11 11 11 10 9 9 10 12 16 21 22 22 23 23 25 26 24 28 34 35 36 39 41 42 42 40 38 38 38 39 39 39 39 39 38 37 36 35 36 37 39 41 42
5 6 6 6 7 11 15 18 20 18 13 12 12 11 14 17 17 16 13 14 17 19 20 20 17 16 17 13 11 13 8 5 9 12 10 9 11 11 11 11 11 11 11 12 11 10 10 10 12 13 14 17 20 21 23 23 22 25 27 26 28 34 35 36 39 40 40 40 39 38 38 38 39 40 40 39 39 38 37 37 36 37 38 39 41 41
5 6 5 6 7 9 15 17 16 13 10 9 13 20 24 21 14 11 13 18 21 17 15 15 12 14 19 16 15 15 6 4 11 12 10 13 15 13 12 11 10 12 13 12 11 10 10 11 12 13 16 19 22 27 29 27 26 29 30 29 30 34 37 37 37 38 38 37 38 38 38 39 40 40 41 40 40 39 38 37 37 37 38 39 40 40
7 8 7 6 5 8 14 14 9 9 11 10 13 20 25 22 18 18 20 23 22 15 12 14 13 16 21 19 18 16 9 8 13 15 14 14 13 13 14 11 9 11 12 11 11 10 10 11 12 14 18 24 29 31 31 31 32 32 31 32 33 35 38 37 33 33 35 34 36 38 39 39 39 40 40 39 38 37 37 36 35 36 37 38 38 39
8 9 7 6 5 6 9 9 9 10 11 10 10 15 20 20 21 24 24 23 22 19 18 19 20 23 23 19 15 16 16 14 14 16 19 17 14 14 16 15 13 14 14 13 11 9 8 9 10 12 19 27 31 30 29 30 32 30 29 32 34 34 37 38 34 31 31 32 35 37 38 39 39 38 38 37 35 35 36 35 35 35 36 37 37 38
9 9 6 5 5 4 4 8 10 8 5 4 6 10 13 12 14 16 17 19 21 22 21 21 23 26 25 20 18 17 17 12 8 15 20 16 11 11 13 17 20 20 19 15 10 9 11 16 21 24 28 30 29 29 30 31 31 29 28 30 34 34 36 37 36 33 31 32 35 37 38 39 38 36 36 35 34 33 34 35 35 35 36 36 36 36
9 8 5 5 7 6 7 9 9 8 7 6 10 12 9 8 11 11 12 16 18 20 20 19 22 26 23 19 19 17 10 5 8 19 23 15 13 15 16 19 22 19 17 17 15 16 21 28 33 33 29 26 26 29 31 30 31 30 29 30 33 34 34 35 36 34 33 33 34 36 38 38 37 34 33 34 33 33 34 35 35 35 36 36 36 36
11 10 8 7 7 6 8 9 8 11 11 11 17 16 8 7 10 9 8 12 13 17 20 18 21 25 19 17 19 11 3 5 11 19 19 12 15 20 20 20 21 17 14 14 15 17 21 25 26 26 24 22 25 28 30 30 32 32 30 30 32 33 33 34 33 34 35 35 35 37 39 39 36 34 33 35 35 35 35 35 35 36 36 36 36 36
14 11 9 8 6 6 8 8 8 10 8 9 15 13 5 7 7 5 3 10 15 19 18 16 18 19 14 17 17 7 4 8 13 16 18 14 13 15 16 18 19 17 16 16 16 18 20 20 18 19 21 22 24 27 30 32 33 32 30 29 30 30 30 30 31 35 38 38 37 38 39 38 36 35 35 36 36 36 36 35 34 35 34 34 34 34
13 9 8 10 9 8 9 7 6 7 5 6 9 6 3 7 10 8 6 11 11 13 14 15 17 15 15 18 15 9 10 13 13 15 16 10 7 10 13 16 16 13 14 18 18 17 17 18 18 18 21 24 26 29 31 32 33 31 28 26 27 28 29 30 33 36 37 36 36 36 37 37 36 35 36 36 36 35 34 33 32 32 32 32 32 31
7 6 8 11 11 11 11 9 6 5 5 7 6 3 4 6 7 8 11 8 5 7 10 13 15 15 16 17 11 9 13 15 17 18 10 1 2 6 8 9 10 8 9 13 16 14 15 19 20 21 23 26 28 29 32 35 32 28 26 27 27 28 30 32 34 35 35 34 35 35 35 35 36 36 35 35 34 33 32 32 31 31 31 31 30 29
3 4 4 7 9 8 8 9 8 6 7 7 4 4 6 5 6 9 8 2 2 5 6 8 11 13 15 15 12 12 15 16 19 19 10 1 2 4 3 4 4 4 4 8 12 15 16 16 17 19 20 23 28 31 34 35 30 25 26 27 27 29 30 32 33 34 34 34 34 34 34 34 35 34 33 33 32 31 30 30 30 29 29 30 29 28
6 5 4 6 7 6 6 7 7 7 6 8 6 3 4 8 8 6 3 1 1 2 3 4 6 8 9 11 12 12 12 13 12 11 10 7 4 2 2 4 4 3 4 6 10 17 18 14 13 18 21 24 29 32 33 31 26 24 26 28 28 30 30 31 32 33 32 32 32 32 32 33 33 32 32 31 31 30 29 29 28 28 28 28 28 27
7 6 6 6 6 6 6 7 6 4 3 8 9 6 9 10 5 1 0 2 1 1 1 2 4 4 4 6 8 8 7 8 7 6 7 7 4 3 4 4 4 4 5 6 10 17 19 15 13 17 21 25 29 31 32 30 26 24 26 27 28 29 29 29 30 30 30 30 30 31 31 31 32 31 31 30 30 29 29 28 28 27 27 26 26 26
8 8 7 6 6 6 6 6 4 1 2 6 7 6 6 6 3 2 2 2 1 1 2 1 2 3 2 5 8 7 6 6 6 5 5 5 4 4 4 3 3 2 2 3 8 14 18 17 19 21 21 23 28 29 29 29 27 25 25 25 26 27 27 28 29 29 29 30 30 31 31 31 30 30 30 30 29 29 29 28 27 27 26 26 26 27
5 3 3 3 3 4 6 5 3 3 3 5 7 6 4 3 2 2 3 5 4 3 3 2 3 3 2 3 5 6 5 5 5 5 5 5 4 3 2 3 2 1 2 4 8 13 15 17 20 22 21 21 25 27 27 27 26 25 24 24 25 27 28 29 29 29 29 30 30 31 31 30 29 29 29 28 28 27 27 27 27 27 27 27 27 27
4 3 3 4 4 4 6 8 10 12 11 8 6 6 6 6 4 3 3 3 3 2 2 3 4 3 2 3 6 7 6 4 4 6 4 3 4 3 2 2 1 1 2 4 8 12 15 15 14 15 16 18 21 24 24 23 23 22 22 24 26 27 28 29 30 29 29 30 30 30 30 30 30 28 27 27 26 26 26 26 27 28 28 29 28 28
4 4 5 6 7 8 6 5 7 8 7 5 5 4 5 6 5 4 3 3 2 3 3 3 3 3 3 4 5 6 6 4 4 5 4 2 3 2 1 2 2 1 2 4 9 12 14 14 13 14 15 17 20 23 23 22 21 21 23 25 27 28 29 29 29 29 29 29 29 29 29 29 29 28 27 27 27 27 27 27 27 28 29 29 28 28
3 4 4 5 9 11 9 7 7 6 4 5 7 6 5 5 5 5 5 5 5 5 5 5 5 4 4 4 4 5 6 6 4 4 3 3 2 2 2 2 3 3 4 7 10 12 12 12 14 16 17 18 20 21 21 21 20 20 23 27 28 29 29 29 28 27 27 28 28 28 28 27 27 28 28 28 27 27 26 26 27 27 26 25 24 23
2 5 5 4 7 8 6 8 10 8 6 6 7 7 8 7 6 7 7 6 6 7 7 8 8 5 4 5 5 5 7 6 4 5 5 4 4 4 4 4 4 4 7 10 11 10 10 11 13 15 16 17 19 19 20 19 19 20 24 27 28 29 30 29 28 27 27 27 28 28 27 27 27 27 28 28 27 26 24 23 23 24 23 21 19 18
5 6 5 5 7 7 8 11 9 6 6 8 7 6 7 6 5 7 7 6 8 9 8 8 9 7 6 7 6 6 6 6 4 5 5 5 5 6 7 7 7 7 10 12 12 11 11 12 13 15 17 19 19 19 19 19 20 22 25 27 28 30 30 30 30 28 27 28 28 29 29 29 28 28 28 28 28 27 25 22 20 20 20 18 15 15
Wind_Direction
266 186 197 221 213 193 190 189 116 79 80 102 110 204 245 267 269 264 93 85 157 255 252 244 251 262 268 271 274 276 264 255 263 261 257 254 247 243 243 247 241 235 233 200 193 204 211 216 217 214 211 206 204 204 202 201 200 198 198 197 197 199 199 198 197 198 198 196 196 196 193 190 189 191 192 194 195 192 189 185 185 187 185 184 185 187
221 213 223 226 91 95 153 132 107 107 95 109 180 242 248 238 264 276 339 83 138 232 263 259 262 263 265 271 270 272 267 260 258 255 255 254 250 243 241 247 246 237 220 183 198 201 201 210 211 208 205 200 198 199 198 197 197 197 197 197 199 198 198 200 201 199 197 196 194 190 188 188 189 191 193 194 192 188 184 182 185 189 187 184 185 186
199 228 230 129 94 88 99 130 149 156 141 170 194 235 253 237 273 277 252 82 163 223 270 282 280 274 269 269 264 258 255 253 252 247 254 261 261 256 246 245 244 239 226 208 205 195 195 202 201 200 200 198 199 197 196 197 196 197 197 198 200 199 197 200 201 200 198 196 195 194 192 192 193 193 194 192 190 188 186 184 187 190 187 184 183 184
191 239 254 117 135 124 99 137 154 150 187 205 202 220 242 204 272 264 238 83 182 218 301 300 287 277 268 262 255 251 249 255 258 253 255 256 256 257 254 252 251 245 238 219 206 193 192 195 195 199 199 197 198 195 194 195 196 199 199 198 200 200 199 200 200 199 199 197 196 197 198 197 196 193 192 190 187 188 188 188 189 189 186 183 184 184
193 79 78 132 163 152 124 151 167 181 215 211 210 223 238 232 232 246 331 334 243 189 322 297 285 266 250 251 253 250 249 260 262 257 257 248 244 252 258 263 258 249 244 230 213 191 188 196 197 199 198 195 195 195 195 195 198 202 199 197 199 201 201 202 201 199 199 197 195 195 192 190 189 186 187 186 186 186 188 190 188 187 184 182 184 185
224 101 119 125 134 151 145 168 188 199 227 226 209 219 235 246 246 245 336 330 278 222 132 322 306 273 200 237 256 263 264 261 245 230 252 251 240 240 252 259 250 241 240 238 229 198 188 196 196 197 195 194 197 198 197 195 200 204 199 196 200 201 202 203 203 200 200 199 196 190 183 180 179 179 184 188 189 187 185 186 185 184 183 182 184 186
195 96 112 128 135 149 163 202 202 192 219 256 197 212 232 242 253 249 240 258 275 283 214 355 313 289 248 231 240 246 262 266 259 246 256 257 245 229 237 251 244 237 232 229 231 210 191 191 191 194 195 195 198 198 194 195 202 205 200 197 200 203 204 204 203 200 200 199 195 191 188 188 187 186 189 191 191 188 185 183 182 183 183 183 185 186
152 143 137 133 136 149 179 216 186 180 203 247 107 159 199 204 220 227 216 226 273 326 286 176 239 281 271 233 230 240 254 266 271 269 266 260 253 238 240 248 240 236 227 215 222 212 196 192 192 195 196 197 197 194 190 196 203 204 200 197 198 204 206 205 204 201 200 199 196 194 196 197 196 194 191 189 189 188 186 184 183 184 184 184 187 186
145 176 176 161 160 181 192 202 159 175 197 30 106 122 131 154 176 167 197 233 289 323 279 171 155 267 273 180 152 247 243 257 263 262 264 263 257 243 248 250 239 232 226 220 221 210 198 195 196 197 195 194 194 190 189 196 203 201 200 200 200 206 208 206 204 202 202 203 200 198 198 194 192 192 188 186 188 188 186 186 186 186 185 186 189 187
35 212 199 172 180 194 149 41 159 186 190 123 130 106 92 93 83 104 217 233 188 278 259 171 168 248 279 166 151 208 225 240 250 253 259 264 272 253 249 247 231 219 218 221 222 210 200 195 194 194 190 190 191 189 190 198 202 200 200 202 203 206 208 206 205 203 203 203 201 199 198 192 187 188 186 185 187 187 187 187 187 187 187 188 189 187
42 17 302 216 186 151 107 68 18 60 115 138 142 111 99 99 81 97 25 38 268 267 251 173 184 222 269 185 169 189 203 222 235 246 255 265 275 256 243 238 221 209 199 201 212 203 191 187 187 187 188 189 188 186 192 200 201 200 199 200 202 204 207 207 206 205 204 201 198 198 197 192 190 191 190 188 186 187 187 187 187 187 189 190 188 185
70 152 199 211 71 110 111 89 53 57 117 155 153 136 141 152 139 187 180 140 247 258 273 143 199 228 245 227 190 212 238 237 234 243 253 263 270 257 232 253 240 210 194 184 195 191 179 180 183 187 190 190 188 187 194 200 200 200 199 197 197 201 206 208 208 207 207 203 199 199 198 198 199 198 196 194 191 191 190 189 188 188 189 190 187 184
191 200 148 91 273 191 151 113 82 81 194 221 167 162 194 224 216 234 213 182 244 253 12 55 243 246 249 251 255 255 248 240 233 239 250 262 269 259 218 237 246 154 225 205 193 189 186 187 186 189 190 189 190 190 194 200 200 200 199 195 194 199 204 207 208 209 209 206 204 202 202 205 206 203 201 199 197 196 194 193 191 189 190 189 187 186
203 219 143 160 198 215 191 170 158 173 189 196 181 175 196 207 219 236 212 228 266 267 97 134 194 249 264 259 243 239 238 233 227 237 245 254 264 263 249 247 262 246 235 220 205 199 195 195 190 188 189 190 191 191 194 199 199 200 200 196 195 197 203 206 207 208 209 208 207 206 206 207 207 205 203 202 201 199 197 196 193 190 191 190 188 189
214 247 180 174 160 176 196 206 159 138 169 195 188 185 209 199 204 230 223 242 274 301 151 163 200 235 245 317 235 240 251 246 238 249 252 254 259 265 274 259 252 244 238 228 216 214 206 198 191 189 190 192 191 190 194 199 199 200 200 198 196 197 202 206 207 207 208 208 208 209 209 209 209 210 208 205 203 200 198 197 194 191 192 192 190 191
223 270 165 153 116 167 184 217 78 111 163 195 119 214 234 213 191 245 292 259 317 320 252 192 233 246 250 296 261 253 275 254 241 256 258 259 257 259 272 261 245 229 227 226 219 217 210 198 193 192 191 192 192 190 194 199 199 199 199 198 198 198 201 205 208 208 208 208 208 209 210 210 213 214 211 208 205 202 200 198 194 193 194 194 194 195
206 291 77 72 345 165 180 327 105 157 193 157 162 200 219 351 205 221 259 80 92 276 260 196 249 275 289 273 232 215 239 240 234 242 240 250 253 249 262 264 259 232 207 215 220 217 210 199 196 197 194 193 192 190 194 200 200 199 198 197 198 200 200 203 208 208 207 208 209 210 211 212 215 215 212 210 208 204 200 198 195 195 197 197 198 199
195 230 54 102 178 127 340 26 86 4 27 133 184 192 139 30 304 233 243 214 180 255 266 208 254 274 271 265 209 168 225 240 236 236 237 245 248 242 245 252 261 255 175 207 221 216 212 202 199 200 198 197 195 193 195 199 201 201 198 197 197 198 199 200 205 207 206 209 210 210 212 213 215 216 213 212 212 206 200 199 197 198 201 201 201 201
188 219 251 37 221 93 37 202 145 48 10 66 232 177 146 222 209 180 218 242 221 244 266 233 261 268 236 233 207 161 198 230 233 229 234 241 239 237 242 244 255 261 218 223 222 214 213 204 202 200 197 198 197 196 196 197 202 202 201 200 198 200 202 200 202 206 207 209 209 209 213 214 214 214 212 213 214 207 200 200 201 203 206 205 203 201
165 231 217 116 291 88 136 211 191 164 138 7 275 186 256 281 225 178 177 236 231 234 274 280 282 266 233 204 196 195 192 204 218 217 224 237 234 232 240 240 241 238 222 223 211 202 211 205 203 201 197 196 195 194 196 199 204 203 201 201 200 201 203 201 202 206 207 209 210 211 213 214 213 212 212 214 214 206 200 201 204 208 210 209 206 202
133 235 221 125 299 207 187 205 196 181 172 183 195 188 190 180 298 250 185 214 255 234 257 276 275 268 241 138 177 195 189 199 214 216 209 235 243 235 241 249 244 228 206 201 192 191 202 202 202 200 197 196 193 193 198 202 205 203 202 202 200 200 200 199 202 206 207 209 211 211 213 214 213 212 212 214 212 205 201 203 207 211 213 212 209 204
173 205 199 155 190 211 200 172 222 205 177 184 196 193 194 175 154 202 203 182 241 243 227 231 271 271 257 121 177 185 186 201 210 209 197 218 235 224 224 238 247 255 229 175 182 190 194 197 196 195 194 192 192 195 200 202 203 203 205 205 201 200 200 199 201 205 207 209 210 212 213 214 213 212 213 213 209 204 204 206 209 212 214 213 209 204
149 157 199 189 195 209 134 46 328 289 347 268 241 205 196 174 175 202 208 192 178 223 277 64 274 272 256 123 176 179 195 202 188 195 206 214 219 214 229 228 213 225 232 185 182 186 195 200 192 191 193 192 193 197 200 203 203 204 206 206 203 202 203 201 202 205 207 208 210 211 213 214 214 212 211 210 207 205 206 208 210 213 214 213 208 202
108 160 206 205 171 66 40 63 60 13 36 237 242 183 192 198 201 207 212 191 167 180 210 191 244 261 266 96 199 145 229 249 172 192 217 228 227 221 238 240 213 210 209 186 187 188 197 199 192 193 194 192 193 195 199 203 204 204 205 206 206 204 204 204 205 207 207 207 209 210 211 212 212 211 209 208 207 206 208 210 212 213 214 212 206 201
164 192 197 201 207 184 194 206 201 180 183 223 222 195 204 209 195 120 23 225 203 209 209 205 243 254 252 72 239 189 122 261 242 213 216 238 247 236 237 231 213 227 227 191 177 186 199 202 200 200 199 196 193 191 195 200 204 205 205 206 207 204 203 206 207 207 207 207 207 208 209 210 210 209 209 208 207 208 210 212 213 214 213 211 206 201
169 181 178 191 214 216 213 213 206 179 167 208 222 197 204 206 189 174 202 210 224 227 215 208 243 254 250 121 199 207 188 253 248 233 220 241 242 234 246 247 220 220 224 205 187 189 200 209 208 203 200 200 196 191 193 197 200 204 206 207 206 201 200 206 208 207 206 206 206 207 208 208 208 208 208 208 209 209 211 213 214 214 213 210 206 202
147 191 193 198 210 221 232 238 160 120 151 198 210 197 197 202 197 196 209 218 224 235 232 220 234 255 266 250 205 188 209 238 245 239 222 238 239 222 215 239 247 240 221 206 205 205 206 211 211 204 200 201 200 196 195 196 198 200 202 204 203 200 202 206 206 205 205 206 206 207 208 207 208 208 208 208 209 211 212 214 214 213 213 211 207 203
98 219 212 214 221 228 243 246 201 145 173 204 205 199 196 196 197 197 212 224 221 228 243 234 228 246 263 261 243 220 225 237 240 239 230 233 242 238 212 212 233 244 233 210 217 219 218 217 210 201 200 202 201 199 198 198 199 200 201 201 199 198 202 205 204 203 204 205 206 208 209 209 209 210 209 209 209 210 212 213 213 213 213 211 207 204
146 219 218 220 233 236 245 250 230 197 204 214 210 203 197 193 195 201 216 224 220 223 240 245 241 240 251 260 256 241 238 240 224 220 231 239 248 262 245 220 224 227 215 213 223 220 217 218 207 196 198 201 202 203 201 200 199 200 201 201 199 198 199 202 203 203 203 204 206 208 210 210 211 210 210 209 208 209 210 212 212 212 212 210 207 205
170 218 219 217 232 238 241 248 244 231 228 234 231 214 197 195 196 202 216 222 222 228 237 245 250 248 248 255 259 251 246 251 234 211 220 232 234 235 229 222 226 224 211 213 223 221 216 212 201 193 196 201 204 204 203 201 199 199 199 199 200 200 199 199 201 202 204 205 207 209 209 210 210 209 207 207 207 208 209 211 211 212 211 209 207 205
191 208 217 217 233 241 241 246 247 242 237 241 243 227 207 209 208 209 216 221 224 233 237 241 249 255 253 251 260 268 260 250 237 222 218 223 229 233 233 224 222 225 222 220 223 223 218 208 197 194 199 205 207 203 203 203 199 198 198 198 199 201 199 199 200 202 204 206 206 208 208 207 207 206 206 206 207 208 210 210 210 210 209 207 206 205
192 208 211 210 230 243 242 244 248 249 246 245 249 238 224 219 215 214 215 219 223 228 235 240 245 255 259 251 253 264 258 223 235 234 223 227 228 227 232 226 217 221 222 221 221 218 211 206 202 201 203 206 205 203 204 203 196 195 197 196 198 200 199 199 200 201 203 205 205 206 206 205 205 205 206 206 207 208 209 210 209 208 207 206 206 205
177 205 212 211 224 240 242 244 248 252 250 239 236 236 233 228 223 220 220 226 229 226 230 236 233 242 254 256 255 258 248 214 244 241 223 228 230 229 232 228 221 224 222 219 219 215 208 209 207 202 203 205 205 207 207 202 196 198 198 196 197 199 199 198 200 201 202 203 204 204 204 205 205 205 205 206 207 207 208 207 207 207 206 206 206 205
184 200 211 216 224 240 244 249 255 249 242 234 227 232 237 236 231 230 230 231 232 229 232 247 255 253 255 256 259 262 249 224 242 249 242 236 233 235 241 238 229 231 231 225 224 219 208 210 212 207 208 213 214 213 211 206 204 205 201 198 198 199 198 198 197 198 200 201 203 203 203 204 205 205 205 204 204 205 205 205 206 207 207 207 206 206
193 206 213 215 224 241 247 251 249 239 237 240 234 231 236 237 234 235 239 239 240 238 235 244 253 256 256 257 259 262 261 256 256 260 255 247 243 245 249 248 239 234 236 232 225 219 206 204 210 210 215 221 219 213 209 207 206 203 199 198 198 198 198 197 195 194 196 199 202 202 202 204 204 202 202 201 200 200 202 203 205 206 207 207 208 208
199 208 212 215 219 227 232 228 234 244 259 276 256 236 233 234 234 239 245 244 240 239 235 236 242 247 251 254 256 259 266 276 281 265 255 246 245 250 247 245 243 240 239 238 225 210 205 207 211 214 219 221 215 207 206 205 201 197 194 195 196 196 196 196 195 195 195 197 200 201 201 202 200 198 198 198 196 196 198 201 203 205 206 206 208 209
209 208 206 216 213 211 226 229 240 266 274 257 245 234 216 209 212 216 234 241 237 235 234 234 240 245 247 252 258 261 267 287 280 266 257 237 224 233 234 240 248 248 244 241 232 222 219 218 219 221 220 215 205 202 202 199 195 192 189 190 193 194 194 194 195 196 195 195 197 199 200 200 196 195 195 194 194 195 198 200 202 204 206 205 205 208
207 204 200 213 208 201 229 236 235 246 244 236 242 241 216 201 211 205 224 247 247 241 237 233 240 248 251 256 256 251 237 256 263 266 263 236 219 229 233 238 246 247 241 235 226 222 222 222 223 222 215 204 200 200 198 193 190 187 185 187 190 190 191 193 194 195 195 196 197 198 198 197 194 192 193 194 196 198 200 202 204 205 207 207 207 210
211 208 206 217 213 202 223 232 228 235 236 235 248 251 209 175 171 140 201 244 246 245 243 240 246 251 252 252 248 215 175 240 250 260 267 255 227 223 228 234 239 239 237 230 220 217 217 213 210 206 198 193 194 196 194 189 185 182 182 184 186 186 189 192 192 194 196 197 197 197 197 195 194 193 194 196 198 200 201 202 204 206 207 208 209 210
213 212 213 222 224 220 226 233 236 241 239 236 248 258 192 160 139 135 224 245 240 241 240 235 237 238 236 242 239 203 206 232 244 258 269 264 221 208 218 229 233 232 231 226 220 216 207 195 186 183 185 190 191 190 188 183 179 180 182 181 182 187 191 192 194 196 197 196 196 196 196 196 196 196 197 198 199 200 201 202 203 203 205 206 207 208
210 207 211 220 225 225 226 235 246 241 229 235 239 193 140 137 140 190 236 245 211 215 227 222 220 221 228 236 232 216 224 231 239 251 264 61 158 218 224 232 240 244 235 220 211 201 187 183 185 184 187 190 186 181 180 178 175 179 183 183 186 192 193 194 195 195 195 196 197 196 196 197 198 200 201 202 202 201 202 203 203 203 204 204 204 206
197 202 211 217 226 228 226 237 252 247 224 217 206 130 134 166 210 226 239 250 191 219 236 224 212 212 223 230 228 227 232 233 238 249 260 259 216 238 235 230 239 248 228 205 196 188 178 176 183 184 184 184 180 178 177 176 175 178 182 186 191 193 193 194 195 195 195 196 196 196 196 197 199 201 202 202 202 200 200 202 203 204 204 204 203 204
178 187 202 201 215 230 231 229 237 246 224 186 157 128 184 213 230 240 245 271 219 238 271 255 231 225 230 237 238 238 245 249 250 259 267 263 252 252 239 223 219 211 188 180 187 186 178 169 171 176 176 177 177 176 174 174 176 180 184 190 194 193 193 194 194 193 193 193 193 193 195 197 198 200 200 200 200 199 198 199 200 201 202 202 202 203
183 197 218 206 196 205 221 224 221 242 218 175 170 192 211 213 216 128 173 247 230 154 233 263 266 268 275 276 273 274 278 276 274 275 272 266 260 254 246 232 227 220 198 189 189 184 176 167 164 168 169 171 173 174 174 175 176 179 187 193 194 192 191 191 189 187 187 188 189 191 194 196 197 198 199 200 199 198 197 197 197 198 200 202 202 202
196 206 229 231 211 209 227 226 204 207 221 204 214 231 227 228 234 111 139 250 272 160 180 232 274 281 290 282 278 277 272 269 273 274 270 272 269 258 255 254 244 227 196 180 177 179 178 173 165 161 162 168 173 174 177 179 177 178 186 191 190 187 184 182 181 181 183 185 187 189 191 192 194 196 198 199 198 196 195 194 194 195 198 200 201 202
221 212 237 244 231 256 266 246 220 243 243 227 239 246 237 246 252 165 199 248 248 203 189 223 253 266 277 267 264 264 262 264 274 273 262 268 275 267 266 278 269 206 169 162 165 174 176 169 163 158 155 163 173 176 179 182 181 180 183 184 183 183 181 178 178 179 181 183 185 187 188 187 189 192 195 196 197 197 198 197 196 195 196 196 199 201
246 213 217 228 214 223 231 217 220 236 235 221 225 235 232 232 220 185 203 244 259 250 233 230 236 242 238 232 242 257 269 268 266 267 262 261 267 261 255 263 243 184 176 163 164 169 164 157 156 154 150 159 172 176 177 180 183 183 182 180 180 181 179 178 177 177 179 180 181 183 185 185 185 186 190 192 194 196 199 200 199 197 196 196 197 200
264 223 213 218 222 229 232 220 230 249 249 234 228 229 230 232 225 209 212 229 257 269 256 241 229 214 211 217 228 250 265 255 241 253 259 254 250 240 226 227 209 168 141 151 159 164 161 158 158 155 154 161 169 173 176 178 182 185 183 180 179 178 177 176 176 176 177 178 179 180 183 184 185 185 187 189 192 194 196 198 199 200 201 201 200 200
313 278 235 212 226 241 254 256 255 265 278 257 242 235 238 240 234 233 234 230 238 251 251 247 232 205 204 219 216 233 252 247 228 227 227 220 212 198 188 186 166 147 148 158 163 166 167 167 163 160 160 164 167 171 174 176 180 183 181 179 178 177 174 173 174 175 175 176 178 180 181 184 186 187 187 188 190 194 197 199 200 203 205 208 208 207
273 272 272 252 239 246 265 272 264 263 269 262 245 237 242 238 225 232 238 227 226 234 238 245 246 228 219 230 218 219 245 250 224 204 203 198 189 182 174 161 146 148 160 164 165 168 169 167 162 157 155 158 164 169 172 174 179 181 178 178 178 177 175 172 171 172 173 175 177 178 179 182 185 187 188 188 188 191 195 198 202 205 207 210 211 213
217 228 241 250 251 264 293 303 302 301 293 287 282 268 258 241 217 226 235 228 228 230 226 234 245 242 237 237 219 208 232 243 216 198 203 201 185 173 171 171 167 164 166 166 163 157 153 155 155 152 151 156 163 169 172 176 178 176 176 177 178 178 177 173 169 169 171 174 177 179 180 182 183 185 187 188 188 187 188 190 197 204 209 211 211 213